Location: Casilda
(33.0440°S, 61.1680°W)
Time: 14:30:18
(UTC-03:00)

ISS - Pass Details

Date: 25 June 2017
Orbit: 401 x 408 km, 51.6° (Epoch: 28 June)

Event Time Altitude Azimuth Distance (km) Brightness Sun altitude
Rises 19:41:08 0° 339° (NNW) 2,319 0.6 -19.2°
Reaches altitude 10° 19:43:24 10° 352° (N) 1,466 -0.7 -19.7°
Enters shadow 19:45:05 21° 17° (NNE) 973 -2.0 -20.0°
